Year,Month,Day,Hour,Minute,Value (Times are PST for temperature in C)
2009,06,02,00,00,20.40
2009,06,02,00,01,20.30
2009,06,02,00,02,20.30
2009,06,02,00,03,20.20
2009,06,02,00,04,20.10
2009,06,02,00,05,20.00
2009,06,02,00,06,19.90
2009,06,02,00,07,19.90
2009,06,02,00,08,19.80
2009,06,02,00,09,19.70
2009,06,02,00,10,19.60
2009,06,02,00,11,19.60
2009,06,02,00,12,19.50
2009,06,02,00,13,19.50
2009,06,02,00,14,19.40
2009,06,02,00,15,19.40
2009,06,02,00,16,19.40
2009,06,02,00,17,19.30
2009,06,02,00,18,19.30
2009,06,02,00,19,19.20
2009,06,02,00,20,19.20
2009,06,02,00,21,19.10
2009,06,02,00,22,19.10
2009,06,02,00,23,19.30
2009,06,02,00,24,19.30
2009,06,02,00,25,19.40
2009,06,02,00,26,19.40
2009,06,02,00,27,19.30
2009,06,02,00,28,19.30
2009,06,02,00,29,19.30
2009,06,02,00,30,19.30
2009,06,02,00,31,19.30
2009,06,02,00,32,19.20
2009,06,02,00,33,19.10
2009,06,02,00,34,18.90
2009,06,02,00,35,18.80
2009,06,02,00,36,18.60
2009,06,02,00,37,18.50
2009,06,02,00,38,18.40
2009,06,02,00,39,18.30
2009,06,02,00,40,18.20
2009,06,02,00,41,18.20
2009,06,02,00,42,18.10
2009,06,02,00,43,18.00
2009,06,02,00,44,17.90
2009,06,02,00,45,17.90
2009,06,02,00,46,17.80
2009,06,02,00,47,17.80
2009,06,02,00,48,17.80
2009,06,02,00,49,17.70
2009,06,02,00,50,17.70
2009,06,02,00,51,17.70
2009,06,02,00,52,17.70
2009,06,02,00,53,17.90
2009,06,02,00,54,18.10
2009,06,02,00,55,18.30
2009,06,02,00,56,18.50
2009,06,02,00,57,18.60
2009,06,02,00,58,18.60
2009,06,02,00,59,18.60
2009,06,02,01,00,18.60
2009,06,02,01,01,18.60
2009,06,02,01,02,18.50
2009,06,02,01,03,18.50
2009,06,02,01,04,18.50
2009,06,02,01,05,18.50
2009,06,02,01,06,18.50
2009,06,02,01,07,18.40
2009,06,02,01,08,18.40
2009,06,02,01,09,18.40
2009,06,02,01,10,18.30
2009,06,02,01,11,18.30
2009,06,02,01,12,18.20
2009,06,02,01,13,18.20
2009,06,02,01,14,18.20
2009,06,02,01,15,18.10
2009,06,02,01,16,18.10
2009,06,02,01,17,18.10
2009,06,02,01,18,18.10
2009,06,02,01,19,18.20
2009,06,02,01,20,18.30
2009,06,02,01,21,18.30
2009,06,02,01,22,18.30
2009,06,02,01,23,18.30
2009,06,02,01,24,18.30
2009,06,02,01,25,18.20
2009,06,02,01,26,18.20
2009,06,02,01,27,18.20
2009,06,02,01,28,18.20
2009,06,02,01,29,18.20
2009,06,02,01,30,18.10
2009,06,02,01,31,18.10
2009,06,02,01,32,18.10
2009,06,02,01,33,18.00
2009,06,02,01,34,17.90
2009,06,02,01,35,17.90
2009,06,02,01,36,17.90
2009,06,02,01,37,17.90
2009,06,02,01,38,17.90
2009,06,02,01,39,17.90
2009,06,02,01,40,17.90
2009,06,02,01,41,17.80
2009,06,02,01,42,17.80
2009,06,02,01,43,17.70
2009,06,02,01,44,17.70
2009,06,02,01,45,17.70
2009,06,02,01,46,17.70
2009,06,02,01,47,17.70
2009,06,02,01,48,17.70
2009,06,02,01,49,17.70
2009,06,02,01,50,17.70
2009,06,02,01,51,17.70
2009,06,02,01,52,17.60
2009,06,02,01,53,17.70
2009,06,02,01,54,17.70
2009,06,02,01,55,17.60
2009,06,02,01,56,17.70
2009,06,02,01,57,17.70
2009,06,02,01,58,17.70
2009,06,02,01,59,17.70
2009,06,02,02,00,17.70
2009,06,02,02,01,17.70
2009,06,02,02,02,17.70
2009,06,02,02,03,17.70
2009,06,02,02,04,17.70
2009,06,02,02,05,17.60
2009,06,02,02,06,17.60
2009,06,02,02,07,17.60
2009,06,02,02,08,17.60
2009,06,02,02,09,17.60
2009,06,02,02,10,17.50
2009,06,02,02,11,17.50
2009,06,02,02,12,17.50
2009,06,02,02,13,17.60
2009,06,02,02,14,17.60
2009,06,02,02,15,17.60
2009,06,02,02,16,17.60
2009,06,02,02,17,17.70
2009,06,02,02,18,17.70
2009,06,02,02,19,17.70
2009,06,02,02,20,17.70
2009,06,02,02,21,17.70
2009,06,02,02,22,17.70
2009,06,02,02,23,17.80
2009,06,02,02,24,17.80
2009,06,02,02,25,17.80
2009,06,02,02,26,17.80
2009,06,02,02,27,17.80
2009,06,02,02,28,17.80
2009,06,02,02,29,17.80
2009,06,02,02,30,17.70
2009,06,02,02,31,17.80
2009,06,02,02,32,17.80
2009,06,02,02,33,17.80
2009,06,02,02,34,17.80
2009,06,02,02,35,17.80
2009,06,02,02,36,17.80
2009,06,02,02,37,17.80
2009,06,02,02,38,17.80
2009,06,02,02,39,17.80
2009,06,02,02,40,17.80
2009,06,02,02,41,17.80
2009,06,02,02,42,17.90
2009,06,02,02,43,17.90
2009,06,02,02,44,17.80
2009,06,02,02,45,17.80
2009,06,02,02,46,17.80
2009,06,02,02,47,17.80
2009,06,02,02,48,17.80
2009,06,02,02,49,17.80
2009,06,02,02,50,17.80
2009,06,02,02,51,17.80
2009,06,02,02,52,17.80
2009,06,02,02,53,17.90
2009,06,02,02,54,17.90
2009,06,02,02,55,17.90
2009,06,02,02,56,17.90
2009,06,02,02,57,17.90
2009,06,02,02,58,17.90
2009,06,02,02,59,17.80
2009,06,02,03,00,17.80
2009,06,02,03,01,17.80
2009,06,02,03,02,17.70
2009,06,02,03,03,17.70
2009,06,02,03,04,17.70
2009,06,02,03,05,17.60
2009,06,02,03,06,17.60
2009,06,02,03,07,17.60
2009,06,02,03,08,17.50
2009,06,02,03,09,17.50
2009,06,02,03,10,17.50
2009,06,02,03,11,17.50
2009,06,02,03,12,17.40
2009,06,02,03,13,17.40
2009,06,02,03,14,17.40
2009,06,02,03,15,17.50
2009,06,02,03,16,17.50
2009,06,02,03,17,17.40
2009,06,02,03,18,17.40
2009,06,02,03,19,17.40
2009,06,02,03,20,17.40
2009,06,02,03,21,17.40
2009,06,02,03,22,17.40
2009,06,02,03,23,17.40
2009,06,02,03,24,17.40
2009,06,02,03,25,17.40
2009,06,02,03,26,17.30
2009,06,02,03,27,17.30
2009,06,02,03,28,17.30
2009,06,02,03,29,17.30
2009,06,02,03,30,17.40
2009,06,02,03,31,17.40
2009,06,02,03,32,17.40
2009,06,02,03,33,17.40
2009,06,02,03,34,17.40
2009,06,02,03,35,17.40
2009,06,02,03,36,17.40
2009,06,02,03,37,17.40
2009,06,02,03,38,17.30
2009,06,02,03,39,17.30
2009,06,02,03,40,17.30
2009,06,02,03,41,17.30
2009,06,02,03,42,17.10
2009,06,02,03,43,16.80
2009,06,02,03,44,16.30
2009,06,02,03,45,15.90
2009,06,02,03,46,15.60
2009,06,02,03,47,15.40
2009,06,02,03,48,15.10
2009,06,02,03,49,15.00
2009,06,02,03,50,14.80
2009,06,02,03,51,14.60
2009,06,02,03,52,14.50
2009,06,02,03,53,14.50
2009,06,02,03,54,14.30
2009,06,02,03,55,14.30
2009,06,02,03,56,14.20
2009,06,02,03,57,14.20
2009,06,02,03,58,14.20
2009,06,02,03,59,14.20
2009,06,02,04,00,14.20
2009,06,02,04,01,14.20
2009,06,02,04,02,14.20
2009,06,02,04,03,14.20
2009,06,02,04,04,14.10
2009,06,02,04,05,14.10
2009,06,02,04,06,14.10
2009,06,02,04,07,14.10
2009,06,02,04,08,14.10
2009,06,02,04,09,14.10
2009,06,02,04,10,14.10
2009,06,02,04,11,14.10
2009,06,02,04,12,14.10
2009,06,02,04,13,14.10
2009,06,02,04,14,14.10
2009,06,02,04,15,14.10
2009,06,02,04,16,14.10
2009,06,02,04,17,14.10
2009,06,02,04,18,14.10
2009,06,02,04,19,14.10
2009,06,02,04,20,14.10
2009,06,02,04,21,14.10
2009,06,02,04,22,14.10
2009,06,02,04,23,14.20
2009,06,02,04,24,14.20
2009,06,02,04,25,14.20
2009,06,02,04,26,14.20
2009,06,02,04,27,14.20
2009,06,02,04,28,14.20
2009,06,02,04,29,14.20
2009,06,02,04,30,14.20
2009,06,02,04,31,14.10
2009,06,02,04,32,14.10
2009,06,02,04,33,14.10
2009,06,02,04,34,14.10
2009,06,02,04,35,14.10
2009,06,02,04,36,14.10
2009,06,02,04,37,14.10
2009,06,02,04,38,14.10
2009,06,02,04,39,14.00
2009,06,02,04,40,14.00
2009,06,02,04,41,14.00
2009,06,02,04,42,14.00
2009,06,02,04,43,14.00
2009,06,02,04,44,14.00
2009,06,02,04,45,14.00
2009,06,02,04,46,13.90
2009,06,02,04,47,13.90
2009,06,02,04,48,13.90
2009,06,02,04,49,13.90
2009,06,02,04,50,13.80
2009,06,02,04,51,13.80
2009,06,02,04,52,13.80
2009,06,02,04,53,13.80
2009,06,02,04,54,13.80
2009,06,02,04,55,13.70
2009,06,02,04,56,13.70
2009,06,02,04,57,13.70
2009,06,02,04,58,13.70
2009,06,02,04,59,13.70
2009,06,02,05,00,13.70
2009,06,02,05,01,13.70
2009,06,02,05,02,13.70
2009,06,02,05,03,13.70
2009,06,02,05,04,13.70
2009,06,02,05,05,13.80
2009,06,02,05,06,13.80
2009,06,02,05,07,13.80
2009,06,02,05,08,13.90
2009,06,02,05,09,13.90
2009,06,02,05,10,14.00
2009,06,02,05,11,14.00
2009,06,02,05,12,14.00
2009,06,02,05,13,14.00
2009,06,02,05,14,14.10
2009,06,02,05,15,14.10
2009,06,02,05,16,14.10
2009,06,02,05,17,14.10
2009,06,02,05,18,14.10
2009,06,02,05,19,14.20
2009,06,02,05,20,14.20
2009,06,02,05,21,14.20
2009,06,02,05,22,14.20
2009,06,02,05,23,14.20
2009,06,02,05,24,14.20
2009,06,02,05,25,14.10
2009,06,02,05,26,14.10
2009,06,02,05,27,14.10
2009,06,02,05,28,14.10
2009,06,02,05,29,14.10
2009,06,02,05,30,14.10
2009,06,02,05,31,14.10
2009,06,02,05,32,14.10
2009,06,02,05,33,14.10
2009,06,02,05,34,14.10
2009,06,02,05,35,14.20
2009,06,02,05,36,14.20
2009,06,02,05,37,14.20
2009,06,02,05,38,14.20
2009,06,02,05,39,14.20
2009,06,02,05,40,14.20
2009,06,02,05,41,14.20
2009,06,02,05,42,14.20
2009,06,02,05,43,14.20
2009,06,02,05,44,14.20
2009,06,02,05,45,14.20
2009,06,02,05,46,14.30
2009,06,02,05,47,14.30
2009,06,02,05,48,14.30
2009,06,02,05,49,14.40
2009,06,02,05,50,14.40
2009,06,02,05,51,14.40
2009,06,02,05,52,14.40
2009,06,02,05,53,14.50
2009,06,02,05,54,14.60
2009,06,02,05,55,14.60
2009,06,02,05,56,14.70
2009,06,02,05,57,14.80
2009,06,02,05,58,14.90
2009,06,02,05,59,14.90
2009,06,02,06,00,15.00
2009,06,02,06,01,15.00
2009,06,02,06,02,15.10
2009,06,02,06,03,15.20
2009,06,02,06,04,15.20
2009,06,02,06,05,15.30
2009,06,02,06,06,15.30
2009,06,02,06,07,15.30
2009,06,02,06,08,15.40
2009,06,02,06,09,15.40
2009,06,02,06,10,15.50
2009,06,02,06,11,15.50
2009,06,02,06,12,15.60
2009,06,02,06,13,15.60
2009,06,02,06,14,15.70
2009,06,02,06,15,15.70
2009,06,02,06,16,15.80
2009,06,02,06,17,15.80
2009,06,02,06,18,15.80
2009,06,02,06,19,15.90
2009,06,02,06,20,16.00
2009,06,02,06,21,16.10
2009,06,02,06,22,16.10
2009,06,02,06,23,16.20
2009,06,02,06,24,16.30
2009,06,02,06,25,16.30
2009,06,02,06,26,16.40
2009,06,02,06,27,16.40
2009,06,02,06,28,16.40
2009,06,02,06,29,16.40
2009,06,02,06,30,16.50
2009,06,02,06,31,16.60
2009,06,02,06,32,16.60
2009,06,02,06,33,16.60
2009,06,02,06,34,16.60
2009,06,02,06,35,16.60
2009,06,02,06,36,16.60
2009,06,02,06,37,16.70
2009,06,02,06,38,16.70
2009,06,02,06,39,16.70
2009,06,02,06,40,16.70
2009,06,02,06,41,16.70
2009,06,02,06,42,16.70
2009,06,02,06,43,16.70
2009,06,02,06,44,16.70
2009,06,02,06,45,16.70
2009,06,02,06,46,16.70
2009,06,02,06,47,16.60
2009,06,02,06,48,16.60
2009,06,02,06,49,16.60
2009,06,02,06,50,16.60
2009,06,02,06,51,16.60
2009,06,02,06,52,16.60
2009,06,02,06,53,16.60
2009,06,02,06,54,16.60
2009,06,02,06,55,16.50
2009,06,02,06,56,16.40
2009,06,02,06,57,16.40
2009,06,02,06,58,16.40
2009,06,02,06,59,16.40
2009,06,02,07,00,16.40
2009,06,02,07,01,16.40
2009,06,02,07,02,16.50
2009,06,02,07,03,16.60
2009,06,02,07,04,16.60
2009,06,02,07,05,16.70
2009,06,02,07,06,16.70
2009,06,02,07,07,16.70
2009,06,02,07,08,16.70
2009,06,02,07,09,16.70
2009,06,02,07,10,16.70
2009,06,02,07,11,16.70
2009,06,02,07,12,16.70
2009,06,02,07,13,16.70
2009,06,02,07,14,16.70
2009,06,02,07,15,16.70
2009,06,02,07,16,16.70
2009,06,02,07,17,16.70
2009,06,02,07,18,16.70
2009,06,02,07,19,16.70
2009,06,02,07,20,16.70
2009,06,02,07,21,16.70
2009,06,02,07,22,16.70
2009,06,02,07,23,16.70
2009,06,02,07,24,16.70
2009,06,02,07,25,16.70
2009,06,02,07,26,16.80
2009,06,02,07,27,16.80
2009,06,02,07,28,16.80
2009,06,02,07,29,16.80
2009,06,02,07,30,16.90
2009,06,02,07,31,16.90
2009,06,02,07,32,16.90
2009,06,02,07,33,16.90
2009,06,02,07,34,17.00
2009,06,02,07,35,17.00
2009,06,02,07,36,17.00
2009,06,02,07,37,17.00
2009,06,02,07,38,17.00
2009,06,02,07,39,17.10
2009,06,02,07,40,17.20
2009,06,02,07,41,17.20
2009,06,02,07,42,17.30
2009,06,02,07,43,17.30
2009,06,02,07,44,17.30
2009,06,02,07,45,17.30
2009,06,02,07,46,17.40
2009,06,02,07,47,17.40
2009,06,02,07,48,17.40
2009,06,02,07,49,17.50
2009,06,02,07,50,17.50
2009,06,02,07,51,17.60
2009,06,02,07,52,17.60
2009,06,02,07,53,17.70
2009,06,02,07,54,17.80
2009,06,02,07,55,17.90
2009,06,02,07,56,17.90
2009,06,02,07,57,17.90
2009,06,02,07,58,17.90
2009,06,02,07,59,18.00
2009,06,02,08,00,18.10
2009,06,02,08,01,18.10
2009,06,02,08,02,18.20
2009,06,02,08,03,18.20
2009,06,02,08,04,18.20
2009,06,02,08,05,18.20
2009,06,02,08,06,18.20
2009,06,02,08,07,18.30
2009,06,02,08,08,18.30
2009,06,02,08,09,18.20
2009,06,02,08,10,18.20
2009,06,02,08,11,18.30
2009,06,02,08,12,18.30
2009,06,02,08,13,18.30
2009,06,02,08,14,18.40
2009,06,02,08,15,18.40
2009,06,02,08,16,18.40
2009,06,02,08,17,18.40
2009,06,02,08,18,18.50
2009,06,02,08,19,18.50
2009,06,02,08,20,18.50
2009,06,02,08,21,18.50
2009,06,02,08,22,18.60
2009,06,02,08,23,18.60
2009,06,02,08,24,18.60
2009,06,02,08,25,18.60
2009,06,02,08,26,18.60
2009,06,02,08,27,18.60
2009,06,02,08,28,18.60
2009,06,02,08,29,18.70
2009,06,02,08,30,18.70
2009,06,02,08,31,18.70
2009,06,02,08,32,18.70
2009,06,02,08,33,18.80
2009,06,02,08,34,18.80
2009,06,02,08,35,18.90
2009,06,02,08,36,18.90
2009,06,02,08,37,18.90
2009,06,02,08,38,18.90
2009,06,02,08,39,18.90
2009,06,02,08,40,18.90
2009,06,02,08,41,18.90
2009,06,02,08,42,18.90
2009,06,02,08,43,18.90
2009,06,02,08,44,18.90
2009,06,02,08,45,18.90
2009,06,02,08,46,18.90
2009,06,02,08,47,18.90
2009,06,02,08,48,18.90
2009,06,02,08,49,19.00
2009,06,02,08,50,19.10
2009,06,02,08,51,19.10
2009,06,02,08,52,19.10
2009,06,02,08,53,19.10
2009,06,02,08,54,19.10
2009,06,02,08,55,19.10
2009,06,02,08,56,19.10
2009,06,02,08,57,19.10
2009,06,02,08,58,19.10
2009,06,02,08,59,19.10
2009,06,02,09,00,19.10
2009,06,02,09,01,19.20
2009,06,02,09,02,19.20
2009,06,02,09,03,19.20
2009,06,02,09,04,19.20
2009,06,02,09,05,19.30
2009,06,02,09,06,19.30
2009,06,02,09,07,19.40
2009,06,02,09,08,19.40
2009,06,02,09,09,19.40
2009,06,02,09,10,19.40
2009,06,02,09,11,19.40
2009,06,02,09,12,19.40
2009,06,02,09,13,19.50
2009,06,02,09,14,19.50
2009,06,02,09,15,19.50
2009,06,02,09,16,19.60
2009,06,02,09,17,19.60
2009,06,02,09,18,19.70
2009,06,02,09,19,19.70
2009,06,02,09,20,19.70
2009,06,02,09,21,19.80
2009,06,02,09,22,19.80
2009,06,02,09,23,19.70
2009,06,02,09,24,19.70
2009,06,02,09,25,19.70
2009,06,02,09,26,19.70
2009,06,02,09,27,19.80
2009,06,02,09,28,19.80
2009,06,02,09,29,19.80
2009,06,02,09,30,19.90
2009,06,02,09,31,19.90
2009,06,02,09,32,20.00
2009,06,02,09,33,20.10
2009,06,02,09,34,20.20
2009,06,02,09,35,20.20
2009,06,02,09,36,20.20
2009,06,02,09,37,20.20
2009,06,02,09,38,20.20
2009,06,02,09,39,20.20
2009,06,02,09,40,20.30
2009,06,02,09,41,20.30
2009,06,02,09,42,20.40
2009,06,02,09,43,20.50
2009,06,02,09,44,20.60
2009,06,02,09,45,20.60
2009,06,02,09,46,20.70
2009,06,02,09,47,20.90
2009,06,02,09,48,21.00
2009,06,02,09,49,21.00
2009,06,02,09,50,21.20
2009,06,02,09,51,21.30
2009,06,02,09,52,21.30
2009,06,02,09,53,21.30
2009,06,02,09,54,21.30
2009,06,02,09,55,21.50
2009,06,02,09,56,21.60
2009,06,02,09,57,21.70
2009,06,02,09,58,21.80
2009,06,02,09,59,21.90
2009,06,02,10,00,22.00
2009,06,02,10,01,22.00
2009,06,02,10,02,22.10
2009,06,02,10,03,22.10
2009,06,02,10,04,22.10
2009,06,02,10,05,22.00
2009,06,02,10,06,22.00
2009,06,02,10,07,22.00
2009,06,02,10,08,22.10
2009,06,02,10,09,22.10
2009,06,02,10,10,22.10
2009,06,02,10,11,22.20
2009,06,02,10,12,22.20
2009,06,02,10,13,22.30
2009,06,02,10,14,22.30
2009,06,02,10,15,22.40
2009,06,02,10,16,22.30
2009,06,02,10,17,22.30
2009,06,02,10,18,22.30
2009,06,02,10,19,22.30
2009,06,02,10,20,22.30
2009,06,02,10,21,22.30
2009,06,02,10,22,22.30
2009,06,02,10,23,22.30
2009,06,02,10,24,22.30
2009,06,02,10,25,22.30
2009,06,02,10,26,22.40
2009,06,02,10,27,22.50
2009,06,02,10,28,22.50
2009,06,02,10,29,22.50
2009,06,02,10,30,22.40
2009,06,02,10,31,22.50
2009,06,02,10,32,22.50
2009,06,02,10,33,22.50
2009,06,02,10,34,22.50
2009,06,02,10,35,22.50
2009,06,02,10,36,22.50
2009,06,02,10,37,22.60
2009,06,02,10,38,22.70
2009,06,02,10,39,22.80
2009,06,02,10,40,22.90
2009,06,02,10,41,22.90
2009,06,02,10,42,22.90
2009,06,02,10,43,22.90
2009,06,02,10,44,22.80
2009,06,02,10,45,22.70
2009,06,02,10,46,22.60
2009,06,02,10,47,22.60
2009,06,02,10,48,22.60
2009,06,02,10,49,22.70
2009,06,02,10,50,22.70
2009,06,02,10,51,22.70
2009,06,02,10,52,22.60
2009,06,02,10,53,22.60
2009,06,02,10,54,22.60
2009,06,02,10,55,22.60
2009,06,02,10,56,22.50
2009,06,02,10,57,22.40
2009,06,02,10,58,22.40
2009,06,02,10,59,22.50
2009,06,02,11,00,22.50
2009,06,02,11,01,22.50
2009,06,02,11,02,22.60
2009,06,02,11,03,22.60
2009,06,02,11,04,22.60
2009,06,02,11,05,22.60
2009,06,02,11,06,22.70
2009,06,02,11,07,22.80
2009,06,02,11,08,22.80
2009,06,02,11,09,22.90
2009,06,02,11,10,22.90
2009,06,02,11,11,22.90
2009,06,02,11,12,22.90
2009,06,02,11,13,22.80
2009,06,02,11,14,22.80
2009,06,02,11,15,22.80
2009,06,02,11,16,22.80
2009,06,02,11,17,22.80
2009,06,02,11,18,22.80
2009,06,02,11,19,22.90
2009,06,02,11,20,23.00
2009,06,02,11,21,23.20
2009,06,02,11,22,23.30
2009,06,02,11,23,23.30
2009,06,02,11,24,23.30
2009,06,02,11,25,23.30
2009,06,02,11,26,23.40
2009,06,02,11,27,23.40
2009,06,02,11,28,23.50
2009,06,02,11,29,23.60
2009,06,02,11,30,23.60
2009,06,02,11,31,23.60
2009,06,02,11,32,23.60
2009,06,02,11,33,23.60
2009,06,02,11,34,23.60
2009,06,02,11,35,23.60
2009,06,02,11,36,23.60
2009,06,02,11,37,23.70
2009,06,02,11,38,23.70
2009,06,02,11,39,23.70
2009,06,02,11,40,23.80
2009,06,02,11,41,23.80
2009,06,02,11,42,23.80
2009,06,02,11,43,23.80
2009,06,02,11,44,23.90
2009,06,02,11,45,23.90
2009,06,02,11,46,24.00
2009,06,02,11,47,23.90
2009,06,02,11,48,24.00
2009,06,02,11,49,24.10
2009,06,02,11,50,24.10
2009,06,02,11,51,24.10
2009,06,02,11,52,24.10
2009,06,02,11,53,24.30
2009,06,02,11,54,24.30
2009,06,02,11,55,24.30
2009,06,02,11,56,24.20
2009,06,02,11,57,24.30
2009,06,02,11,58,24.30
2009,06,02,11,59,24.30
2009,06,02,12,00,24.30
2009,06,02,12,01,24.40
2009,06,02,12,02,24.40
2009,06,02,12,03,24.40
2009,06,02,12,04,24.40
2009,06,02,12,05,24.40
2009,06,02,12,06,24.40
2009,06,02,12,07,24.50
2009,06,02,12,08,24.60
2009,06,02,12,09,24.70
2009,06,02,12,10,24.70
2009,06,02,12,11,24.70
2009,06,02,12,12,24.70
2009,06,02,12,13,24.70
2009,06,02,12,14,24.80
2009,06,02,12,15,24.90
2009,06,02,12,16,25.00
2009,06,02,12,17,25.10
2009,06,02,12,18,25.10
2009,06,02,12,19,25.10
2009,06,02,12,20,25.10
2009,06,02,12,21,25.10
2009,06,02,12,22,25.20
2009,06,02,12,23,25.10
2009,06,02,12,24,25.10
2009,06,02,12,25,25.00
2009,06,02,12,26,25.00
2009,06,02,12,27,25.10
2009,06,02,12,28,25.20
2009,06,02,12,29,25.20
2009,06,02,12,30,25.30
2009,06,02,12,31,25.30
2009,06,02,12,32,25.30
2009,06,02,12,33,25.30
2009,06,02,12,34,25.30
2009,06,02,12,35,25.40
2009,06,02,12,36,25.50
2009,06,02,12,37,25.60
2009,06,02,12,38,25.60
2009,06,02,12,39,25.60
2009,06,02,12,40,25.70
2009,06,02,12,41,25.80
2009,06,02,12,42,25.80
2009,06,02,12,43,25.90
2009,06,02,12,44,25.90
2009,06,02,12,45,25.90
2009,06,02,12,46,25.90
2009,06,02,12,47,26.00
2009,06,02,12,48,26.00
2009,06,02,12,49,26.00
2009,06,02,12,50,26.00
2009,06,02,12,51,26.00
2009,06,02,12,52,25.90
2009,06,02,12,53,25.90
2009,06,02,12,54,25.90
2009,06,02,12,55,25.90
2009,06,02,12,56,25.90
2009,06,02,12,57,25.90
2009,06,02,12,58,25.90
2009,06,02,12,59,26.00
2009,06,02,13,00,26.00
2009,06,02,13,01,26.00
2009,06,02,13,02,26.00
2009,06,02,13,03,26.00
2009,06,02,13,04,25.90
2009,06,02,13,05,25.90
2009,06,02,13,06,25.90
2009,06,02,13,07,26.00
2009,06,02,13,08,26.00
2009,06,02,13,09,26.10
2009,06,02,13,10,26.10
2009,06,02,13,11,26.10
2009,06,02,13,12,26.30
2009,06,02,13,13,26.40
2009,06,02,13,14,26.50
2009,06,02,13,15,26.60
2009,06,02,13,16,26.50
2009,06,02,13,17,26.40
2009,06,02,13,18,26.40
2009,06,02,13,19,26.40
2009,06,02,13,20,26.40
2009,06,02,13,21,26.40
2009,06,02,13,22,26.40
2009,06,02,13,23,26.60
2009,06,02,13,24,26.60
2009,06,02,13,25,26.40
2009,06,02,13,26,26.40
2009,06,02,13,27,26.50
2009,06,02,13,28,26.60
2009,06,02,13,29,26.60
2009,06,02,13,30,26.70
2009,06,02,13,31,26.80
2009,06,02,13,32,26.80
2009,06,02,13,33,26.90
2009,06,02,13,34,27.00
2009,06,02,13,35,27.10
2009,06,02,13,36,27.10
2009,06,02,13,37,27.20
2009,06,02,13,38,27.30
2009,06,02,13,39,27.30
2009,06,02,13,40,27.30
2009,06,02,13,41,27.20
2009,06,02,13,42,27.10
2009,06,02,13,43,27.10
2009,06,02,13,44,27.20
2009,06,02,13,45,27.30
2009,06,02,13,46,27.30
2009,06,02,13,47,27.30
2009,06,02,13,48,27.20
2009,06,02,13,49,27.20
2009,06,02,13,50,27.20
2009,06,02,13,51,27.30
2009,06,02,13,52,27.30
2009,06,02,13,53,27.30
2009,06,02,13,54,27.40
2009,06,02,13,55,27.50
2009,06,02,13,56,27.60
2009,06,02,13,57,27.70
2009,06,02,13,58,27.80
2009,06,02,13,59,27.90
2009,06,02,14,00,27.80
2009,06,02,14,01,27.80
2009,06,02,14,02,27.80
2009,06,02,14,03,27.90
2009,06,02,14,04,27.90
2009,06,02,14,05,28.00
2009,06,02,14,06,28.00
2009,06,02,14,07,28.10
2009,06,02,14,08,28.20
2009,06,02,14,09,28.10
2009,06,02,14,10,28.10
2009,06,02,14,11,28.10
2009,06,02,14,12,28.10
2009,06,02,14,13,28.10
2009,06,02,14,14,28.20
2009,06,02,14,15,28.20
2009,06,02,14,16,28.20
2009,06,02,14,17,28.30
2009,06,02,14,18,28.30
2009,06,02,14,19,28.30
2009,06,02,14,20,28.20
2009,06,02,14,21,28.20
2009,06,02,14,22,28.00
2009,06,02,14,23,27.60
2009,06,02,14,24,27.30
2009,06,02,14,25,27.00
2009,06,02,14,26,26.60
2009,06,02,14,27,26.20
2009,06,02,14,28,26.00
2009,06,02,14,29,25.70
2009,06,02,14,30,25.60
2009,06,02,14,31,25.60
2009,06,02,14,32,25.60
2009,06,02,14,33,25.60
2009,06,02,14,34,25.70
2009,06,02,14,35,25.70
2009,06,02,14,36,25.80
2009,06,02,14,37,25.80
2009,06,02,14,38,25.60
2009,06,02,14,39,25.50
2009,06,02,14,40,25.50
2009,06,02,14,41,25.50
2009,06,02,14,42,25.50
2009,06,02,14,43,25.50
2009,06,02,14,44,25.70
2009,06,02,14,45,25.80
2009,06,02,14,46,25.80
2009,06,02,14,47,25.70
2009,06,02,14,48,25.60
2009,06,02,14,49,25.60
2009,06,02,14,50,25.70
2009,06,02,14,51,25.90
2009,06,02,14,52,25.90
2009,06,02,14,53,26.10
2009,06,02,14,54,26.20
2009,06,02,14,55,26.20
2009,06,02,14,56,26.30
2009,06,02,14,57,26.50
2009,06,02,14,58,26.60
2009,06,02,14,59,26.70
2009,06,02,15,00,26.80
2009,06,02,15,01,26.80
2009,06,02,15,02,27.00
2009,06,02,15,03,27.10
2009,06,02,15,04,27.20
2009,06,02,15,05,27.30
2009,06,02,15,06,27.40
2009,06,02,15,07,27.30
2009,06,02,15,08,27.30
2009,06,02,15,09,27.40
2009,06,02,15,10,27.50
2009,06,02,15,11,27.70
2009,06,02,15,12,27.80
2009,06,02,15,13,27.90
2009,06,02,15,14,28.00
2009,06,02,15,15,28.10
2009,06,02,15,16,28.20
2009,06,02,15,17,28.30
2009,06,02,15,18,28.50
2009,06,02,15,19,28.60
2009,06,02,15,20,28.70
2009,06,02,15,21,28.80
2009,06,02,15,22,28.90
2009,06,02,15,23,28.90
2009,06,02,15,24,28.80
2009,06,02,15,25,28.80
2009,06,02,15,26,28.80
2009,06,02,15,27,28.80
2009,06,02,15,28,28.60
2009,06,02,15,29,28.40
2009,06,02,15,30,28.20
2009,06,02,15,31,27.90
2009,06,02,15,32,27.70
2009,06,02,15,33,27.50
2009,06,02,15,34,27.30
2009,06,02,15,35,27.30
2009,06,02,15,36,27.30
2009,06,02,15,37,27.30
2009,06,02,15,38,27.40
2009,06,02,15,39,27.40
2009,06,02,15,40,27.40
2009,06,02,15,41,27.40
2009,06,02,15,42,27.50
2009,06,02,15,43,27.60
2009,06,02,15,44,27.80
2009,06,02,15,45,28.00
2009,06,02,15,46,28.10
2009,06,02,15,47,28.00
2009,06,02,15,48,27.90
2009,06,02,15,49,27.80
2009,06,02,15,50,27.80
2009,06,02,15,51,27.80
2009,06,02,15,52,27.90
2009,06,02,15,53,28.00
2009,06,02,15,54,28.10
2009,06,02,15,55,28.30
2009,06,02,15,56,28.40
2009,06,02,15,57,28.40
2009,06,02,15,58,28.60
2009,06,02,15,59,28.60
2009,06,02,16,00,28.50
2009,06,02,16,01,28.30
2009,06,02,16,02,28.30
2009,06,02,16,03,28.30
2009,06,02,16,04,28.40
2009,06,02,16,05,28.50
2009,06,02,16,06,28.70
2009,06,02,16,07,28.80
2009,06,02,16,08,29.00
2009,06,02,16,09,29.10
2009,06,02,16,10,29.10
2009,06,02,16,11,29.20
2009,06,02,16,12,29.20
2009,06,02,16,13,29.20
2009,06,02,16,14,29.30
2009,06,02,16,15,29.30
2009,06,02,16,16,29.40
2009,06,02,16,17,29.40
2009,06,02,16,18,29.50
2009,06,02,16,19,29.60
2009,06,02,16,20,29.60
2009,06,02,16,21,29.70
2009,06,02,16,22,29.70
2009,06,02,16,23,29.60
2009,06,02,16,24,29.60
2009,06,02,16,25,29.60
2009,06,02,16,26,29.60
2009,06,02,16,27,29.60
2009,06,02,16,28,29.70
2009,06,02,16,29,29.70
2009,06,02,16,30,29.80
2009,06,02,16,31,29.80
2009,06,02,16,32,29.80
2009,06,02,16,33,29.80
2009,06,02,16,34,29.80
2009,06,02,16,35,29.80
2009,06,02,16,36,29.80
2009,06,02,16,37,29.80
2009,06,02,16,38,29.80
2009,06,02,16,39,29.70
2009,06,02,16,40,29.60
2009,06,02,16,41,29.60
2009,06,02,16,42,29.60
2009,06,02,16,43,29.60
2009,06,02,16,44,29.60
2009,06,02,16,45,29.60
2009,06,02,16,46,29.70
2009,06,02,16,47,29.70
2009,06,02,16,48,29.70
2009,06,02,16,49,29.70
2009,06,02,16,50,29.70
2009,06,02,16,51,29.70
2009,06,02,16,52,29.70
2009,06,02,16,53,29.60
2009,06,02,16,54,29.50
2009,06,02,16,55,29.50
2009,06,02,16,56,29.50
2009,06,02,16,57,29.50
2009,06,02,16,58,29.50
2009,06,02,16,59,29.60
2009,06,02,17,00,29.60
2009,06,02,17,01,29.40
2009,06,02,17,02,29.00
2009,06,02,17,03,28.60
2009,06,02,17,04,28.00
2009,06,02,17,05,27.50
2009,06,02,17,06,27.00
2009,06,02,17,07,26.50
2009,06,02,17,08,26.10
2009,06,02,17,09,25.70
2009,06,02,17,10,25.30
2009,06,02,17,11,24.90
2009,06,02,17,12,24.70
2009,06,02,17,13,24.40
2009,06,02,17,14,24.10
2009,06,02,17,15,23.90
2009,06,02,17,16,23.70
2009,06,02,17,17,23.70
2009,06,02,17,18,23.60
2009,06,02,17,19,23.60